www.pogodaiklimat.ru

Погода и климат >> Архив погоды >> Турция >> Шанлыурфа


ПОГОДА в Шанлыурфе

  • Прогноз погоды в Шанлыурфе
  • Монитор погоды в Шанлыурфе

АРХИВ ПОГОДЫ в Шанлыурфе

Время (UTC), дата Ветер
(напр.,м/с)
 
Видим.   Явления Облачность Т
(С)
Тd
(С)
f
(%)
Тe
(С)
Тes
(С)
Комфортность P
(гПа)
Po
(гПа)
Тmin
(С)
Tmax
(С)
R
(мм)
R24
(мм)
S
(см)
06 10.07 СЗ 2
{6}
20 км ясно +32.6 +7.6 21 +31 +42 жарко 1000.3 941.4 +24.9
07 10.07 СЗ 2 20 км ясно +34.5 +7.5 19 +33 +48 жарко 999.7 941.0
08 10.07 СЗ 3 20 км ясно +35.4 +5.8 16 +33 +50 жарко 999.3 940.6
09 10.07 С 2
{6}
20 км ясно +37.3 +5.4 14 +35 +55 опасность
солнечного
удара
998.9 940.3
10 10.07 СЗ 2 20 км ясно +38.2 +5.2 13 +35 +56 опасность
солнечного
удара
998.3 939.7
11 10.07 СЗ 2 20 км ясно +38.8 +4.5 12 +36 +55 опасность
солнечного
удара
997.6 939.0
12 10.07 З 1
{6}
20 км ясно +38.3 +4.1 12 +35 +52 опасность
солнечного
удара
997.4 938.7
13 10.07 З 2 20 км ясно +39.2 +3.4 11 +36 +47 очень
жарко
997.2 938.4
14 10.07 З 2 20 км ясно +38.6 +4.1 12 +36 +41 очень
жарко
996.8 938.1
15 10.07 СЗ 2
{7}
20 км ясно +37.6 -0.7 9 +34 +36 очень
жарко
997.1 938.3
16 10.07 СЗ 2 20 км ясно +37.0 +1.8 11 +34 +34 очень
жарко
997.1 938.3
17 10.07 СЗ 1 20 км ясно +33.0 +2.8 15 +30 +30 жарко 997.2 938.3
18 10.07 З 1
{7}
20 км ясно +32.3 +4.2 17 +30 +30 жарко 997.3 938.5 +39.8
06 11.07 СЗ 2
{6}
20 км ясно +34.7 +10.6 23 +34 +44 очень
жарко
998.1 939.5 +26.0
07 11.07 СЗ 2 20 км ясно +35.9 +9.0 19 +34 +49 очень
жарко
998.2 939.5
08 11.07 СЗ 3 20 км ясно +37.2 +8.2 17 +35 +52 опасность
солнечного
удара
998.0 939.5
09 11.07 СЗ 3
{7}
20 км ясно +38.1 +6.9 15 +36 +54 опасность
солнечного
удара
997.5 939.1
10 11.07 З 3 20 км ясно +39.8 +7.6 14 +37 +54 опасность
солнечного
удара
996.8 938.5
11 11.07 З 3 20 км ясно +40.0 +7.7 14 +38 +54 опасность
солнечного
удара
996.1 937.8
12 11.07 З 3
{8}
20 км ясно +39.6 +8.3 15 +37 +49 очень
жарко
996.0 937.5
13 11.07 З 3 20 км ясно +39.9 +7.6 14 +38 +46 очень
жарко
995.7 937.2
14 11.07 З 2 20 км ясно +38.6 +7.9 16 +37 +42 очень
жарко
995.6 937.0
15 11.07 З 2
{8}
20 км ясно +37.9 +8.0 16 +36 +38 очень
жарко
995.5 936.8
16 11.07 ЮЗ 3 20 км ясно +36.6 +8.4 18 +35 +35 очень
жарко
995.8 937.1
17 11.07 З 4 20 км ясно +33.9 +14.5 31 +35 +35 очень
жарко
996.2 937.6
18 11.07 З 4
{9}
20 км ясно +32.3 +14.4 34 +34 +34 душно 996.7 938.2 +41.0
06 12.07 З 3
{10}
20 км ясно +31.3 +14.8 37 +33 +42 жарко 1000.3 941.2 +26.3
07 12.07 З 3 20 км ясно +33.6 +14.6 32 +35 +49 душно 1000.1 941.2
08 12.07 З 2 20 км ясно +34.7 +15.2 31 +36 +55 опасность
солнечного
удара
1000.2 941.3
09 12.07 ЮЗ 3
{10}
20 км 3/3 1200 м
[Cu hum]
+36.5 +12.6 24 +36 +49 очень
жарко
999.9 941.1
10 12.07 З 3 20 км 3/3 1000 м
[Cu hum]
+36.8 +13.5 25 +37 +49 очень
жарко
999.6 940.8
11 12.07 З 4 20 км 3/3 1000 м
[Cu hum]
+37.9 +12.6 22 +38 +47 очень
жарко
999.0 940.2
12 12.07 ЮЗ 3
{10}
20 км 3/3 1200 м
[Cu hum]
+36.8 +12.2 23 +37 +45 очень
жарко
999.0 940.1
13 12.07 ЮЗ 3 20 км 3/3 1000 м
[Cu hum]
+36.3 +11.6 23 +36 +41 очень
жарко
998.8 939.8
14 12.07 З 3 20 км 3/3 1000 м
[Cu hum]
+36.1 +11.7 23 +36 +39 очень
жарко
998.6 939.6
15 12.07 З 4
{10}
20 км 3/3 1200 м
[Cu hum]
+34.4 +10.9 24 +34 +35 очень
жарко
998.7 939.5
16 12.07 З 4 20 км 3/3 1000 м
[Cu hum]
+33.2 +12.2 28 +33 +34 жарко 999.3 939.9
17 12.07 З 3 20 км 3/3 1000 м
[Cu hum]
+31.0 +12.4 32 +32 +32 жарко 999.7 940.3
18 12.07 З 3
{10}
20 км 3/3 1200 м
[Cu hum]
+29.3 +14.6 41 +32 +32 душно 1000.3 940.9 +38.6
06 13.07 СЗ 1
{7}
20 км ясно +30.2 +12.5 34 +31 +43 жарко 1002.5 942.9 +23.2
07 13.07 СЗ 1 20 км ясно +32.9 +11.9 28 +33 +51 опасность
солнечного
удара
1002.2 942.7
08 13.07 СЗ 1 20 км ясно +32.3 +9.1 24 +31 +53 опасность
солнечного
удара
1002.2 942.6
09 13.07 С 2
{4}
20 км ясно +33.4 +9.4 23 +32 +54 опасность
солнечного
удара
1001.8 942.3
10 13.07 С 2 20 км 4/4 1000 м
[Cu hum]
+32.4 +8.5 23 +31 +43 жарко 1001.4 941.8
11 13.07 З 3 20 км 4/4 1000 м
[Cu hum]
+35.7 +8.6 19 +34 +44 очень
жарко
1000.6 941.3
12 13.07 ЮЗ 1
{6}
20 км 4/4 1200 м
[Cu hum]
+36.3 +9.3 19 +35 +45 очень
жарко
1000.3 940.9
13 13.07 ЮЗ 1 20 км 4/4 1000 м
[Cu hum]
+34.3 +12.5 27 +35 +41 очень
жарко
1000.2 940.7
14 13.07 ЮЗ 2 20 км 5/3 1000 м
[Cu hum Ac lent]
+33.6 +9.1 22 +32 +35 жарко 1000.0 940.4
15 13.07 З 4-9
{9}
20 км 5/3 1200 м
[Cu hum Ac lent]
+32.3 +11.9 29 +33 +33 жарко 1000.6 940.7
16 13.07 З 6 20 км 3/3 1000 м
[Cu hum]
+30.2 +11.2 31 +31 +31 жарко 1001.4 941.4
17 13.07 СЗ 3 20 км 3/3 1000 м
[Cu hum]
+28.8 +10.0 31 +29 +29 жарко 1001.4 941.7
18 13.07 СЗ 2
{11}
20 км 3/3 1200 м
[Cu hum]
+27.4 +11.7 38 +29 +29 жарко 1002.1 942.3 +37.9
06 14.07 С 2
{8}
20 км ясно +29.0 +6.9 25 +28 +38 жарко 1003.6 943.6 +22.6
07 14.07 С 2 20 км ясно +30.9 +7.2 23 +30 +46 жарко 1003.1 943.3
08 14.07 СЗ 1 20 км ясно +32.0 +5.4 19 +30 +52 опасность
солнечного
удара
1003.1 943.3
09 14.07 З 2
{6}
20 км ясно +33.3 +4.9 17 +31 +51 опасность
солнечного
удара
1002.7 943.0
10 14.07 З 2 20 км ясно +35.3 +5.9 16 +33 +55 опасность
солнечного
удара
1001.9 942.4
11 14.07 З 2 20 км ясно +35.7 +7.8 18 +34 +53 опасность
солнечного
удара
1001.4 941.9
12 14.07 З 3
{8}
20 км ясно +35.4 +8.3 19 +34 +45 очень
жарко
1001.1 941.6
13 14.07 З 2 20 км ясно +35.0 +7.9 19 +33 +43 жарко 1001.0 941.4
14 14.07 З 3 20 км ясно +34.5 +9.6 22 +33 +38 жарко 1000.8 941.1
15 14.07 З 2
{8}
20 км ясно +33.8 +10.4 24 +33 +35 жарко 1000.8 941.0
16 14.07 ЮЗ 2 20 км ясно +32.6 +11.7 28 +33 +33 жарко 1001.0 941.2
17 14.07 З 3 20 км ясно +30.6 +9.3 27 +30 +30 жарко 1001.2 941.5
18 14.07 З 3
{8}
20 км ясно +29.3 +9.8 30 +29 +29 жарко 1001.7 942.0 +37.3
06 15.07 З 3
{7}
20 км ясно +27.8 +12.0 38 +29 +38 жарко 1002.5 942.7 +22.7
08 15.07 З 3 20 км ясно +31.5 +13.7 34 +33 +50 жарко 1002.4 942.7
09 15.07 З 3
{9}
20 км 3/3 1200 м
[Cu hum]
+32.2 +12.8 31 +33 +46 жарко 1002.1 942.4
10 15.07 З 3 20 км 3/3 1000 м
[Cu hum]
+32.6 +12.1 29 +33 +46 жарко 1001.6 941.9
11 15.07 З 3 20 км 3/3 1000 м
[Cu hum]
+33.5 +11.3 26 +33 +45 жарко 1001.2 941.5
12 15.07 З 3
{9}
20 км 3/3 1200 м
[Cu hum]
+34.0 +11.1 25 +34 +43 очень
жарко
1000.8 941.1
13 15.07 З 3 20 км 3/3 1000 м
[Cu hum]
+33.1 +11.6 27 +33 +39 жарко 1000.8 941.0
14 15.07 З 3 20 км 3/3 1000 м
[Cu hum]
+33.0 +12.5 29 +33 +36 жарко 1000.7 940.9
15 15.07 З 3
{9}
20 км 3/3 1200 м
[Cu hum]
+31.8 +12.5 31 +32 +34 жарко 1000.9 940.9
16 15.07 З 3 20 км 3/3 1000 м
[Cu hum]
+30.6 +12.0 32 +31 +31 жарко 1001.2 941.2
17 15.07 З 3 20 км 3/3 1000 м
[Cu hum]
+29.2 +12.1 35 +30 +30 жарко 1001.5 941.6
18 15.07 З 3
{9}
20 км 3/3 1200 м
[Cu hum]
+28.1 +12.0 37 +29 +29 жарко 1001.9 942.0 +35.1
06 16.07 СЗ 2
{6}
20 км ясно +29.5 +9.9 30 +30 +40 жарко 1002.6 942.8 +22.6
07 16.07 СЗ 2 20 км ясно +31.3 +8.9 25 +30 +46 жарко 1002.8 943.1
08 16.07 С 2 20 км ясно +33.2 +8.6 22 +32 +52 опасность
солнечного
удара
1002.5 942.9
09 16.07 СЗ 2
{5}
20 км ясно +33.6 +7.5 20 +32 +52 опасность
солнечного
удара
1002.3 942.6
10 16.07 З 3 20 км ясно +35.2 +7.4 18 +33 +51 опасность
солнечного
удара
1001.5 942.0
11 16.07 З 3 20 км ясно +35.4 +4.9 15 +33 +49 жарко 1001.0 941.5
12 16.07 З 3
{7}
20 км ясно +36.0 +5.5 15 +33 +46 жарко 1000.6 941.2
13 16.07 З 3 20 км ясно +35.3 +5.6 16 +33 +41 жарко 1000.4 940.9
14 16.07 З 4 20 км ясно +34.8 +5.2 16 +32 +36 жарко 1000.1 940.5
15 16.07 З 3
{8}
20 км ясно +34.2 +4.9 16 +32 +33 жарко 1000.2 940.5
16 16.07 З 3 20 км ясно +32.2 +12.4 30 +33 +33 жарко 1000.3 940.6
17 16.07 З 3 20 км ясно +30.2 +13.5 36 +32 +32 жарко 1000.7 941.0
18 16.07 З 4
{9}
20 км ясно +28.7 +14.0 41 +31 +31 жарко 1001.3 941.6 +36.5

 

Местоположение метеостанции Шанлыурфа (Турция): широта 37.13 долгота 38.77 высота над уровнем моря 549 м.

В архиве по умолчанию представлена погода в Шанлыурфе за последнюю неделю. Архивные данные за месяц целиком и за предыдущие месяцы, начиная с января 2011 года, Вы можете получить, выбрав интересующий диапазон дат из раскрывающегося списка и нажав кнопку "Ввод!".


*Определитесь, кто Вы:
робот инопланетянин человек

Внимание! Время в таблицах - всемирное. Для получения местного времени необходимо прибавить поправку, которая равна 2 ч.

Смотрите также архив погоды в соседних городах и на ближайших метеорологических станциях:

Погода в Аэропорту GAP (Турция) (35 км)
Погода в Эт-Телль-эль-Абьяде (Сирия) (50 км)
Погода в Адыямане (Турция) (81 км)
Погода в Газиантепе (Турция) (124 км)
Погода в Газиантепе (Турция) (126 км)
Погода в Ракке (Сирия) (135 км)
Погода в Аэропорту Малатья Тулга (Турция) (143 км)
Погода в Диярбакыре (Турция) (150 км)
Погода в Килисе (Турция) (154 км)
Погода в Аэропорту Малатья (Турция) (157 км)

Пояснения к столбцам:

Ветер - указаны скорость ветра в м/с - средняя за 10 мин, порывы в срок и между сроками (в фигурных скобках) и направление, откуда дует ветер: С - северный, СВ - северо-восточный, В - восточный, ЮВ - юго-восточный, Ю - южный, ЮЗ - юго-западный, З - западный, СЗ - северо-западный.
Видимость - горизонтальная дальность видимости в метрах или километрах. При видимости от 1 до 10 км при отсутствии осадков обычно наблюдается дымка, при ухудшении видимости до 1 км и менее - туман. В сухую погоду видимость может ухудшаться дымом, пылью или мглою.
Явления - указаны атмосферные явления, наблюдавшиеся в срок или в последний час перед сроком; фигурными скобками обозначены явления, наблюдавшиеся между сроками (за 1-3 часа до срока); квадратными скобками обозначены град или гололедные отложения с указанием их диаметра в мм.
Облачность - указаны через наклонную черту общая и нижняя облачность в баллах и высота нижней границы облаков в метрах; квадратными скобками обозначены формы облаков: Ci - перистые, Cs - перисто-слоистые, Cc - перисто-кучевые, Ac - высококучевые, As - высокослоистые, Sc - слоисто-кучевые, Ns - слоисто-дождевые, Cu - кучевые, Cb - кучево-дождевые. Подробнее классификацию облаков см. в Атласе облаков (PDF).
T - Температура воздуха - температура, измеренная на высоте 2 м над землей.
Td - Температура точки росы - температура, при понижении до которой содержащийся в воздухе водяной пар достигнет насыщения.
f - Относительная влажность воздуха - влажноcть воздуха, измеренная на высоте 2 м над землей.
Te - Эффективная температура - температура, которую ощущает одетый по сезону человек в тени. Характеристика душности погоды. При расчете учитывается влияние влажности воздуха и скорости ветра на теплоощущения человека.
Tes - Эффективная температура на солнце - температура, которую ощущает человек, с поправкой на солнечный нагрев. Характеристика знойности погоды. Зависит от высоты солнца над горизонтом, облачности и скорости ветра. Ночью, в пасмурную погоду, а также при ветре 12 м/с и более поправка равна нулю.
P - Атмосферное давление - приведенное к уровню моря атмосферное давление.
Po - Атмосферное давление - измеренное на уровне метеостанции атмосферное давление.
Tmin - Минимальная температура - минимум температуры воздуха на высоте 2 м над землей.
Tmax - Максимальная температура - максимум температуры воздуха на высоте 2 м над землей.
R - Количество осадков - Количество выпавших осадков за период времени, мм. При наведении курсора мыши на число - период времени, за который выпало указанное количество осадков.
R24 - Количество осадков - Количество выпавших осадков за 24 часа, мм.
S - Снежный покров - Высота снежного покрова, см. При наведении курсора мыши на число - состояние снежного покрова и степень покрытия местности в баллах.